<?xml version="1.0" encoding="UTF-8" standalone="no" ?>
<gpx xmlns="http://www.topografix.com/GPX/1/1" xmlns:xsi="http://www.w3.org/2001/XMLSchema-instance" xsi:schemaLocation="http://www.topografix.com/GPX/1/1 http://www.topografix.com/GPX/1/1/gpx.xsd" version="1.1" creator="VisuGPX - https://www.visugpx.com">
  <metadata>
    <name>Cavaliers Duerne St Cyr</name>
    <desc><![CDATA[Rando organisée par la pierre des 3 communes]]></desc>
  </metadata>
  <trk>
    <name><![CDATA[Cavaliers Duerne St Cyr gpx]]></name>
    <extensions>
      <line xmlns="http://www.topografix.com/GPX/gpx_style/0/2">
        <color>0000FF</color>
        <width>4</width>
      </line>
    </extensions>
    <trkseg>
      <trkpt lat="45.68243" lon="4.52603">
        <ele>792</ele>
        <time>2024-04-27T11:31:29Z</time>
      </trkpt>
      <trkpt lat="45.68249" lon="4.52533">
        <ele>793</ele>
        <time>2024-04-27T11:31:29Z</time>
      </trkpt>
      <trkpt lat="45.68285" lon="4.52521">
        <ele>796</ele>
        <time>2024-04-27T11:31:29Z</time>
      </trkpt>
      <trkpt lat="45.68331" lon="4.52485">
        <ele>802</ele>
        <time>2024-04-27T11:31:29Z</time>
      </trkpt>
      <trkpt lat="45.68429" lon="4.52521">
        <ele>804</ele>
        <time>2024-04-27T11:31:29Z</time>
      </trkpt>
      <trkpt lat="45.68447" lon="4.52566">
        <ele>803</ele>
        <time>2024-04-27T11:31:29Z</time>
      </trkpt>
      <trkpt lat="45.68565" lon="4.52513">
        <ele>806</ele>
        <time>2024-04-27T11:31:29Z</time>
      </trkpt>
      <trkpt lat="45.68718" lon="4.52474">
        <ele>802</ele>
        <time>2024-04-27T11:31:29Z</time>
      </trkpt>
      <trkpt lat="45.6879" lon="4.52503">
        <ele>801</ele>
        <time>2024-04-27T11:31:29Z</time>
      </trkpt>
      <trkpt lat="45.68844" lon="4.52473">
        <ele>802</ele>
        <time>2024-04-27T11:31:29Z</time>
      </trkpt>
      <trkpt lat="45.68889" lon="4.52481">
        <ele>801</ele>
        <time>2024-04-27T11:31:29Z</time>
      </trkpt>
      <trkpt lat="45.68998" lon="4.52447">
        <ele>809</ele>
        <time>2024-04-27T11:31:29Z</time>
      </trkpt>
      <trkpt lat="45.69057" lon="4.5243">
        <ele>802</ele>
        <time>2024-04-27T11:31:29Z</time>
      </trkpt>
      <trkpt lat="45.69102" lon="4.52413">
        <ele>804</ele>
        <time>2024-04-27T11:31:29Z</time>
      </trkpt>
      <trkpt lat="45.69298" lon="4.52305">
        <ele>822</ele>
        <time>2024-04-27T11:31:29Z</time>
      </trkpt>
      <trkpt lat="45.69342" lon="4.52364">
        <ele>815</ele>
        <time>2024-04-27T11:31:29Z</time>
      </trkpt>
      <trkpt lat="45.69395" lon="4.52373">
        <ele>819</ele>
        <time>2024-04-27T11:31:29Z</time>
      </trkpt>
      <trkpt lat="45.69541" lon="4.52276">
        <ele>809</ele>
        <time>2024-04-27T11:31:29Z</time>
      </trkpt>
      <trkpt lat="45.69621" lon="4.52318">
        <ele>802</ele>
        <time>2024-04-27T11:31:29Z</time>
      </trkpt>
      <trkpt lat="45.69666" lon="4.52332">
        <ele>800</ele>
        <time>2024-04-27T11:31:29Z</time>
      </trkpt>
      <trkpt lat="45.69708" lon="4.5227">
        <ele>799</ele>
        <time>2024-04-27T11:31:29Z</time>
      </trkpt>
      <trkpt lat="45.69658" lon="4.52037">
        <ele>797</ele>
        <time>2024-04-27T11:31:29Z</time>
      </trkpt>
      <trkpt lat="45.69652" lon="4.51921">
        <ele>794</ele>
        <time>2024-04-27T11:31:29Z</time>
      </trkpt>
      <trkpt lat="45.69623" lon="4.51791">
        <ele>789</ele>
        <time>2024-04-27T11:31:29Z</time>
      </trkpt>
      <trkpt lat="45.69626" lon="4.51631">
        <ele>785</ele>
        <time>2024-04-27T11:31:29Z</time>
      </trkpt>
      <trkpt lat="45.69747" lon="4.51404">
        <ele>764</ele>
        <time>2024-04-27T11:31:29Z</time>
      </trkpt>
      <trkpt lat="45.69732" lon="4.51025">
        <ele>765</ele>
        <time>2024-04-27T11:31:29Z</time>
      </trkpt>
      <trkpt lat="45.6973" lon="4.50884">
        <ele>759</ele>
        <time>2024-04-27T11:31:29Z</time>
      </trkpt>
      <trkpt lat="45.698" lon="4.50771">
        <ele>745</ele>
        <time>2024-04-27T11:31:29Z</time>
      </trkpt>
      <trkpt lat="45.69662" lon="4.50688">
        <ele>760</ele>
        <time>2024-04-27T11:31:29Z</time>
      </trkpt>
      <trkpt lat="45.69601" lon="4.50615">
        <ele>770</ele>
        <time>2024-04-27T11:31:29Z</time>
      </trkpt>
      <trkpt lat="45.69515" lon="4.50631">
        <ele>782</ele>
        <time>2024-04-27T11:31:29Z</time>
      </trkpt>
      <trkpt lat="45.69518" lon="4.50477">
        <ele>772</ele>
        <time>2024-04-27T11:31:29Z</time>
      </trkpt>
      <trkpt lat="45.69616" lon="4.50256">
        <ele>764</ele>
        <time>2024-04-27T11:31:29Z</time>
      </trkpt>
      <trkpt lat="45.69675" lon="4.50046">
        <ele>758</ele>
        <time>2024-04-27T11:31:29Z</time>
      </trkpt>
      <trkpt lat="45.69706" lon="4.50028">
        <ele>756</ele>
        <time>2024-04-27T11:31:29Z</time>
      </trkpt>
      <trkpt lat="45.69655" lon="4.49898">
        <ele>747</ele>
        <time>2024-04-27T11:31:29Z</time>
      </trkpt>
      <trkpt lat="45.69606" lon="4.49877">
        <ele>739</ele>
        <time>2024-04-27T11:31:29Z</time>
      </trkpt>
      <trkpt lat="45.69505" lon="4.49944">
        <ele>736</ele>
        <time>2024-04-27T11:31:29Z</time>
      </trkpt>
      <trkpt lat="45.69438" lon="4.49954">
        <ele>716</ele>
        <time>2024-04-27T11:31:29Z</time>
      </trkpt>
      <trkpt lat="45.69372" lon="4.49656">
        <ele>626</ele>
        <time>2024-04-27T11:31:29Z</time>
      </trkpt>
      <trkpt lat="45.69293" lon="4.49755">
        <ele>619</ele>
        <time>2024-04-27T11:31:29Z</time>
      </trkpt>
      <trkpt lat="45.69159" lon="4.49936">
        <ele>595</ele>
        <time>2024-04-27T11:31:29Z</time>
      </trkpt>
      <trkpt lat="45.69091" lon="4.49947">
        <ele>586</ele>
        <time>2024-04-27T11:31:29Z</time>
      </trkpt>
      <trkpt lat="45.69088" lon="4.49876">
        <ele>586</ele>
        <time>2024-04-27T11:31:29Z</time>
      </trkpt>
      <trkpt lat="45.69095" lon="4.49754">
        <ele>589</ele>
        <time>2024-04-27T11:31:29Z</time>
      </trkpt>
      <trkpt lat="45.69056" lon="4.49663">
        <ele>609</ele>
        <time>2024-04-27T11:31:29Z</time>
      </trkpt>
      <trkpt lat="45.69063" lon="4.49573">
        <ele>607</ele>
        <time>2024-04-27T11:31:29Z</time>
      </trkpt>
      <trkpt lat="45.68984" lon="4.49454">
        <ele>641</ele>
        <time>2024-04-27T11:31:29Z</time>
      </trkpt>
      <trkpt lat="45.68969" lon="4.49312">
        <ele>650</ele>
        <time>2024-04-27T11:31:29Z</time>
      </trkpt>
      <trkpt lat="45.68895" lon="4.49143">
        <ele>666</ele>
        <time>2024-04-27T11:31:29Z</time>
      </trkpt>
      <trkpt lat="45.68766" lon="4.49073">
        <ele>697</ele>
        <time>2024-04-27T11:31:29Z</time>
      </trkpt>
      <trkpt lat="45.68755" lon="4.48977">
        <ele>699</ele>
        <time>2024-04-27T11:31:29Z</time>
      </trkpt>
      <trkpt lat="45.68773" lon="4.48939">
        <ele>697</ele>
        <time>2024-04-27T11:31:29Z</time>
      </trkpt>
      <trkpt lat="45.6878" lon="4.4883">
        <ele>707</ele>
        <time>2024-04-27T11:31:29Z</time>
      </trkpt>
      <trkpt lat="45.68722" lon="4.48802">
        <ele>712</ele>
        <time>2024-04-27T11:31:29Z</time>
      </trkpt>
      <trkpt lat="45.68641" lon="4.48818">
        <ele>716</ele>
        <time>2024-04-27T11:31:29Z</time>
      </trkpt>
      <trkpt lat="45.6858" lon="4.48719">
        <ele>710</ele>
        <time>2024-04-27T11:31:29Z</time>
      </trkpt>
      <trkpt lat="45.68538" lon="4.48551">
        <ele>722</ele>
        <time>2024-04-27T11:31:29Z</time>
      </trkpt>
      <trkpt lat="45.68461" lon="4.48355">
        <ele>737</ele>
        <time>2024-04-27T11:31:29Z</time>
      </trkpt>
      <trkpt lat="45.68343" lon="4.48158">
        <ele>754</ele>
        <time>2024-04-27T11:31:29Z</time>
      </trkpt>
      <trkpt lat="45.68331" lon="4.48061">
        <ele>761</ele>
        <time>2024-04-27T11:31:29Z</time>
      </trkpt>
      <trkpt lat="45.68312" lon="4.47887">
        <ele>785</ele>
        <time>2024-04-27T11:31:29Z</time>
      </trkpt>
      <trkpt lat="45.68259" lon="4.47847">
        <ele>789</ele>
        <time>2024-04-27T11:31:29Z</time>
      </trkpt>
      <trkpt lat="45.68289" lon="4.47687">
        <ele>784</ele>
        <time>2024-04-27T11:31:29Z</time>
      </trkpt>
      <trkpt lat="45.68223" lon="4.47595">
        <ele>781</ele>
        <time>2024-04-27T11:31:29Z</time>
      </trkpt>
      <trkpt lat="45.68189" lon="4.4751">
        <ele>779</ele>
        <time>2024-04-27T11:31:29Z</time>
      </trkpt>
      <trkpt lat="45.68082" lon="4.47422">
        <ele>777</ele>
        <time>2024-04-27T11:31:29Z</time>
      </trkpt>
      <trkpt lat="45.68088" lon="4.47346">
        <ele>773</ele>
        <time>2024-04-27T11:31:29Z</time>
      </trkpt>
      <trkpt lat="45.68149" lon="4.46989">
        <ele>728</ele>
        <time>2024-04-27T11:31:29Z</time>
      </trkpt>
      <trkpt lat="45.68188" lon="4.46836">
        <ele>700</ele>
        <time>2024-04-27T11:31:29Z</time>
      </trkpt>
      <trkpt lat="45.68197" lon="4.46599">
        <ele>709</ele>
        <time>2024-04-27T11:31:29Z</time>
      </trkpt>
      <trkpt lat="45.68126" lon="4.46314">
        <ele>713</ele>
        <time>2024-04-27T11:31:29Z</time>
      </trkpt>
      <trkpt lat="45.67984" lon="4.46199">
        <ele>721</ele>
        <time>2024-04-27T11:31:29Z</time>
      </trkpt>
      <trkpt lat="45.6795" lon="4.46095">
        <ele>707</ele>
        <time>2024-04-27T11:31:29Z</time>
      </trkpt>
      <trkpt lat="45.67912" lon="4.45946">
        <ele>679</ele>
        <time>2024-04-27T11:31:29Z</time>
      </trkpt>
      <trkpt lat="45.67873" lon="4.45893">
        <ele>675</ele>
        <time>2024-04-27T11:31:29Z</time>
      </trkpt>
      <trkpt lat="45.67852" lon="4.45789">
        <ele>663</ele>
        <time>2024-04-27T11:31:29Z</time>
      </trkpt>
      <trkpt lat="45.67796" lon="4.45697">
        <ele>654</ele>
        <time>2024-04-27T11:31:29Z</time>
      </trkpt>
      <trkpt lat="45.67797" lon="4.45614">
        <ele>642</ele>
        <time>2024-04-27T11:31:29Z</time>
      </trkpt>
      <trkpt lat="45.67788" lon="4.45376">
        <ele>624</ele>
        <time>2024-04-27T11:31:29Z</time>
      </trkpt>
      <trkpt lat="45.67831" lon="4.4523">
        <ele>616</ele>
        <time>2024-04-27T11:31:29Z</time>
      </trkpt>
      <trkpt lat="45.67919" lon="4.45118">
        <ele>616</ele>
        <time>2024-04-27T11:31:29Z</time>
      </trkpt>
      <trkpt lat="45.6798" lon="4.44998">
        <ele>606</ele>
        <time>2024-04-27T11:31:29Z</time>
      </trkpt>
      <trkpt lat="45.68018" lon="4.44903">
        <ele>588</ele>
        <time>2024-04-27T11:31:29Z</time>
      </trkpt>
      <trkpt lat="45.68084" lon="4.44713">
        <ele>578</ele>
        <time>2024-04-27T11:31:29Z</time>
      </trkpt>
      <trkpt lat="45.68194" lon="4.44852">
        <ele>562</ele>
        <time>2024-04-27T11:31:29Z</time>
      </trkpt>
      <trkpt lat="45.68156" lon="4.44941">
        <ele>553</ele>
        <time>2024-04-27T11:31:29Z</time>
      </trkpt>
      <trkpt lat="45.68204" lon="4.45026">
        <ele>536</ele>
        <time>2024-04-27T11:31:29Z</time>
      </trkpt>
      <trkpt lat="45.68284" lon="4.45106">
        <ele>520</ele>
        <time>2024-04-27T11:31:29Z</time>
      </trkpt>
      <trkpt lat="45.6839" lon="4.45181">
        <ele>529</ele>
        <time>2024-04-27T11:31:29Z</time>
      </trkpt>
      <trkpt lat="45.68517" lon="4.45167">
        <ele>515</ele>
        <time>2024-04-27T11:31:29Z</time>
      </trkpt>
      <trkpt lat="45.68589" lon="4.45169">
        <ele>504</ele>
        <time>2024-04-27T11:31:29Z</time>
      </trkpt>
      <trkpt lat="45.68732" lon="4.45188">
        <ele>481</ele>
        <time>2024-04-27T11:31:29Z</time>
      </trkpt>
      <trkpt lat="45.68755" lon="4.45156">
        <ele>476</ele>
        <time>2024-04-27T11:31:29Z</time>
      </trkpt>
      <trkpt lat="45.68784" lon="4.45055">
        <ele>470</ele>
        <time>2024-04-27T11:31:29Z</time>
      </trkpt>
      <trkpt lat="45.68812" lon="4.44992">
        <ele>466</ele>
        <time>2024-04-27T11:31:29Z</time>
      </trkpt>
      <trkpt lat="45.68676" lon="4.44826">
        <ele>456</ele>
        <time>2024-04-27T11:31:29Z</time>
      </trkpt>
      <trkpt lat="45.68677" lon="4.44755">
        <ele>447</ele>
        <time>2024-04-27T11:31:29Z</time>
      </trkpt>
      <trkpt lat="45.68663" lon="4.44575">
        <ele>439</ele>
        <time>2024-04-27T11:31:29Z</time>
      </trkpt>
      <trkpt lat="45.68669" lon="4.44485">
        <ele>438</ele>
        <time>2024-04-27T11:31:29Z</time>
      </trkpt>
      <trkpt lat="45.68617" lon="4.444">
        <ele>438</ele>
        <time>2024-04-27T11:31:29Z</time>
      </trkpt>
      <trkpt lat="45.68648" lon="4.44375">
        <ele>438</ele>
        <time>2024-04-27T11:31:29Z</time>
      </trkpt>
      <trkpt lat="45.686" lon="4.44322">
        <ele>438</ele>
        <time>2024-04-27T11:31:29Z</time>
      </trkpt>
      <trkpt lat="45.68656" lon="4.44215">
        <ele>439</ele>
        <time>2024-04-27T11:31:29Z</time>
      </trkpt>
      <trkpt lat="45.68588" lon="4.44026">
        <ele>440</ele>
        <time>2024-04-27T11:31:29Z</time>
      </trkpt>
      <trkpt lat="45.68569" lon="4.43827">
        <ele>440</ele>
        <time>2024-04-27T11:31:29Z</time>
      </trkpt>
      <trkpt lat="45.68589" lon="4.43699">
        <ele>442</ele>
        <time>2024-04-27T11:31:29Z</time>
      </trkpt>
      <trkpt lat="45.68631" lon="4.43617">
        <ele>445</ele>
        <time>2024-04-27T11:31:29Z</time>
      </trkpt>
      <trkpt lat="45.68666" lon="4.43452">
        <ele>451</ele>
        <time>2024-04-27T11:31:29Z</time>
      </trkpt>
      <trkpt lat="45.68678" lon="4.43266">
        <ele>451</ele>
        <time>2024-04-27T11:31:29Z</time>
      </trkpt>
      <trkpt lat="45.68652" lon="4.43239">
        <ele>449</ele>
        <time>2024-04-27T11:31:29Z</time>
      </trkpt>
      <trkpt lat="45.68616" lon="4.43231">
        <ele>447</ele>
        <time>2024-04-27T11:31:29Z</time>
      </trkpt>
      <trkpt lat="45.68604" lon="4.42916">
        <ele>453</ele>
        <time>2024-04-27T11:31:29Z</time>
      </trkpt>
      <trkpt lat="45.68733" lon="4.42767">
        <ele>459</ele>
        <time>2024-04-27T11:31:29Z</time>
      </trkpt>
      <trkpt lat="45.68847" lon="4.4265">
        <ele>463</ele>
        <time>2024-04-27T11:31:29Z</time>
      </trkpt>
      <trkpt lat="45.68893" lon="4.42626">
        <ele>464</ele>
        <time>2024-04-27T11:31:29Z</time>
      </trkpt>
      <trkpt lat="45.68894" lon="4.42581">
        <ele>465</ele>
        <time>2024-04-27T11:31:29Z</time>
      </trkpt>
      <trkpt lat="45.69064" lon="4.42369">
        <ele>475</ele>
        <time>2024-04-27T11:31:29Z</time>
      </trkpt>
      <trkpt lat="45.69144" lon="4.42192">
        <ele>482</ele>
        <time>2024-04-27T11:31:29Z</time>
      </trkpt>
      <trkpt lat="45.69212" lon="4.42169">
        <ele>487</ele>
        <time>2024-04-27T11:31:29Z</time>
      </trkpt>
      <trkpt lat="45.69218" lon="4.42073">
        <ele>490</ele>
        <time>2024-04-27T11:31:29Z</time>
      </trkpt>
      <trkpt lat="45.69239" lon="4.41894">
        <ele>500</ele>
        <time>2024-04-27T11:31:29Z</time>
      </trkpt>
      <trkpt lat="45.69241" lon="4.4181">
        <ele>509</ele>
        <time>2024-04-27T11:31:29Z</time>
      </trkpt>
      <trkpt lat="45.69168" lon="4.41622">
        <ele>529</ele>
        <time>2024-04-27T11:31:29Z</time>
      </trkpt>
      <trkpt lat="45.69265" lon="4.41484">
        <ele>542</ele>
        <time>2024-04-27T11:31:29Z</time>
      </trkpt>
      <trkpt lat="45.69301" lon="4.41228">
        <ele>562</ele>
        <time>2024-04-27T11:31:29Z</time>
      </trkpt>
      <trkpt lat="45.69329" lon="4.40947">
        <ele>586</ele>
        <time>2024-04-27T11:31:29Z</time>
      </trkpt>
      <trkpt lat="45.69361" lon="4.40903">
        <ele>590</ele>
        <time>2024-04-27T11:31:29Z</time>
      </trkpt>
      <trkpt lat="45.69512" lon="4.40768">
        <ele>611</ele>
        <time>2024-04-27T11:31:29Z</time>
      </trkpt>
      <trkpt lat="45.69581" lon="4.40706">
        <ele>621</ele>
        <time>2024-04-27T11:31:29Z</time>
      </trkpt>
      <trkpt lat="45.69803" lon="4.40637">
        <ele>623</ele>
        <time>2024-04-27T11:31:29Z</time>
      </trkpt>
      <trkpt lat="45.69687" lon="4.40556">
        <ele>621</ele>
        <time>2024-04-27T11:31:29Z</time>
      </trkpt>
      <trkpt lat="45.69595" lon="4.40443">
        <ele>624</ele>
        <time>2024-04-27T11:31:29Z</time>
      </trkpt>
      <trkpt lat="45.69553" lon="4.40281">
        <ele>619</ele>
        <time>2024-04-27T11:31:29Z</time>
      </trkpt>
      <trkpt lat="45.69483" lon="4.40169">
        <ele>615</ele>
        <time>2024-04-27T11:31:29Z</time>
      </trkpt>
      <trkpt lat="45.69382" lon="4.40024">
        <ele>610</ele>
        <time>2024-04-27T11:31:29Z</time>
      </trkpt>
      <trkpt lat="45.69186" lon="4.39908">
        <ele>602</ele>
        <time>2024-04-27T11:31:29Z</time>
      </trkpt>
      <trkpt lat="45.69047" lon="4.3989">
        <ele>588</ele>
        <time>2024-04-27T11:31:29Z</time>
      </trkpt>
      <trkpt lat="45.6898" lon="4.39874">
        <ele>581</ele>
        <time>2024-04-27T11:31:29Z</time>
      </trkpt>
      <trkpt lat="45.68889" lon="4.39897">
        <ele>579</ele>
        <time>2024-04-27T11:31:29Z</time>
      </trkpt>
      <trkpt lat="45.68786" lon="4.39874">
        <ele>579</ele>
        <time>2024-04-27T11:31:29Z</time>
      </trkpt>
      <trkpt lat="45.68704" lon="4.39678">
        <ele>584</ele>
        <time>2024-04-27T11:31:29Z</time>
      </trkpt>
      <trkpt lat="45.68533" lon="4.39184">
        <ele>597</ele>
        <time>2024-04-27T11:31:29Z</time>
      </trkpt>
      <trkpt lat="45.68659" lon="4.39201">
        <ele>595</ele>
        <time>2024-04-27T11:31:29Z</time>
      </trkpt>
      <trkpt lat="45.68788" lon="4.39257">
        <ele>575</ele>
        <time>2024-04-27T11:31:29Z</time>
      </trkpt>
      <trkpt lat="45.68837" lon="4.39304">
        <ele>566</ele>
        <time>2024-04-27T11:31:29Z</time>
      </trkpt>
      <trkpt lat="45.68908" lon="4.39384">
        <ele>548</ele>
        <time>2024-04-27T11:31:29Z</time>
      </trkpt>
      <trkpt lat="45.68952" lon="4.39411">
        <ele>541</ele>
        <time>2024-04-27T11:31:29Z</time>
      </trkpt>
      <trkpt lat="45.68988" lon="4.39419">
        <ele>539</ele>
        <time>2024-04-27T11:31:29Z</time>
      </trkpt>
      <trkpt lat="45.69065" lon="4.39409">
        <ele>532</ele>
        <time>2024-04-27T11:31:29Z</time>
      </trkpt>
      <trkpt lat="45.69191" lon="4.39131">
        <ele>544</ele>
        <time>2024-04-27T11:31:29Z</time>
      </trkpt>
      <trkpt lat="45.69239" lon="4.38972">
        <ele>556</ele>
        <time>2024-04-27T11:31:29Z</time>
      </trkpt>
      <trkpt lat="45.69139" lon="4.38814">
        <ele>533</ele>
        <time>2024-04-27T11:31:29Z</time>
      </trkpt>
      <trkpt lat="45.69036" lon="4.38791">
        <ele>529</ele>
        <time>2024-04-27T11:31:29Z</time>
      </trkpt>
      <trkpt lat="45.69071" lon="4.38568">
        <ele>528</ele>
        <time>2024-04-27T11:31:29Z</time>
      </trkpt>
      <trkpt lat="45.69081" lon="4.38254">
        <ele>522</ele>
        <time>2024-04-27T11:31:29Z</time>
      </trkpt>
      <trkpt lat="45.68981" lon="4.3809">
        <ele>548</ele>
        <time>2024-04-27T11:31:29Z</time>
      </trkpt>
      <trkpt lat="45.69081" lon="4.38048">
        <ele>535</ele>
        <time>2024-04-27T11:31:29Z</time>
      </trkpt>
      <trkpt lat="45.69146" lon="4.3789">
        <ele>518</ele>
        <time>2024-04-27T11:31:29Z</time>
      </trkpt>
      <trkpt lat="45.69132" lon="4.37723">
        <ele>520</ele>
        <time>2024-04-27T11:31:29Z</time>
      </trkpt>
      <trkpt lat="45.69074" lon="4.37644">
        <ele>531</ele>
        <time>2024-04-27T11:31:29Z</time>
      </trkpt>
      <trkpt lat="45.69077" lon="4.37477">
        <ele>511</ele>
        <time>2024-04-27T11:31:29Z</time>
      </trkpt>
      <trkpt lat="45.68942" lon="4.37253">
        <ele>525</ele>
        <time>2024-04-27T11:31:29Z</time>
      </trkpt>
      <trkpt lat="45.68888" lon="4.37258">
        <ele>536</ele>
        <time>2024-04-27T11:31:29Z</time>
      </trkpt>
      <trkpt lat="45.68831" lon="4.3741">
        <ele>547</ele>
        <time>2024-04-27T11:31:29Z</time>
      </trkpt>
      <trkpt lat="45.68745" lon="4.37464">
        <ele>543</ele>
        <time>2024-04-27T11:31:29Z</time>
      </trkpt>
      <trkpt lat="45.68724" lon="4.37637">
        <ele>566</ele>
        <time>2024-04-27T11:31:29Z</time>
      </trkpt>
      <trkpt lat="45.68614" lon="4.37736">
        <ele>568</ele>
        <time>2024-04-27T11:31:29Z</time>
      </trkpt>
      <trkpt lat="45.68549" lon="4.37849">
        <ele>565</ele>
        <time>2024-04-27T11:31:29Z</time>
      </trkpt>
      <trkpt lat="45.68496" lon="4.37802">
        <ele>562</ele>
        <time>2024-04-27T11:31:29Z</time>
      </trkpt>
      <trkpt lat="45.68452" lon="4.37736">
        <ele>557</ele>
        <time>2024-04-27T11:31:29Z</time>
      </trkpt>
      <trkpt lat="45.68498" lon="4.37648">
        <ele>553</ele>
        <time>2024-04-27T11:31:29Z</time>
      </trkpt>
      <trkpt lat="45.68495" lon="4.37564">
        <ele>558</ele>
        <time>2024-04-27T11:31:29Z</time>
      </trkpt>
      <trkpt lat="45.68357" lon="4.37508">
        <ele>582</ele>
        <time>2024-04-27T11:31:29Z</time>
      </trkpt>
      <trkpt lat="45.6822" lon="4.37342">
        <ele>575</ele>
        <time>2024-04-27T11:31:29Z</time>
      </trkpt>
      <trkpt lat="45.68287" lon="4.37139">
        <ele>563</ele>
        <time>2024-04-27T11:31:29Z</time>
      </trkpt>
      <trkpt lat="45.6826" lon="4.3692">
        <ele>532</ele>
        <time>2024-04-27T11:31:29Z</time>
      </trkpt>
      <trkpt lat="45.68298" lon="4.36777">
        <ele>521</ele>
        <time>2024-04-27T11:31:29Z</time>
      </trkpt>
      <trkpt lat="45.68354" lon="4.36651">
        <ele>505</ele>
        <time>2024-04-27T11:31:29Z</time>
      </trkpt>
      <trkpt lat="45.68356" lon="4.36554">
        <ele>497</ele>
        <time>2024-04-27T11:31:29Z</time>
      </trkpt>
      <trkpt lat="45.6839" lon="4.3644">
        <ele>492</ele>
        <time>2024-04-27T11:31:29Z</time>
      </trkpt>
      <trkpt lat="45.68297" lon="4.36604">
        <ele>503</ele>
        <time>2024-04-27T11:31:29Z</time>
      </trkpt>
      <trkpt lat="45.68216" lon="4.36594">
        <ele>519</ele>
        <time>2024-04-27T11:31:29Z</time>
      </trkpt>
      <trkpt lat="45.68192" lon="4.36677">
        <ele>523</ele>
        <time>2024-04-27T11:31:29Z</time>
      </trkpt>
      <trkpt lat="45.68023" lon="4.36568">
        <ele>557</ele>
        <time>2024-04-27T11:31:29Z</time>
      </trkpt>
      <trkpt lat="45.67915" lon="4.36557">
        <ele>562</ele>
        <time>2024-04-27T11:31:29Z</time>
      </trkpt>
      <trkpt lat="45.67747" lon="4.36628">
        <ele>565</ele>
        <time>2024-04-27T11:31:29Z</time>
      </trkpt>
      <trkpt lat="45.67637" lon="4.36746">
        <ele>575</ele>
        <time>2024-04-27T11:31:29Z</time>
      </trkpt>
      <trkpt lat="45.67448" lon="4.36771">
        <ele>567</ele>
        <time>2024-04-27T11:31:29Z</time>
      </trkpt>
      <trkpt lat="45.67402" lon="4.36827">
        <ele>571</ele>
        <time>2024-04-27T11:31:29Z</time>
      </trkpt>
      <trkpt lat="45.67367" lon="4.36743">
        <ele>575</ele>
        <time>2024-04-27T11:31:29Z</time>
      </trkpt>
      <trkpt lat="45.67262" lon="4.36848">
        <ele>598</ele>
        <time>2024-04-27T11:31:29Z</time>
      </trkpt>
      <trkpt lat="45.67237" lon="4.36988">
        <ele>610</ele>
        <time>2024-04-27T11:31:29Z</time>
      </trkpt>
      <trkpt lat="45.6721" lon="4.36994">
        <ele>612</ele>
        <time>2024-04-27T11:31:29Z</time>
      </trkpt>
      <trkpt lat="45.6706" lon="4.36308">
        <ele>630</ele>
        <time>2024-04-27T11:31:29Z</time>
      </trkpt>
      <trkpt lat="45.67081" lon="4.36167">
        <ele>635</ele>
        <time>2024-04-27T11:31:29Z</time>
      </trkpt>
      <trkpt lat="45.66995" lon="4.35959">
        <ele>640</ele>
        <time>2024-04-27T11:31:29Z</time>
      </trkpt>
      <trkpt lat="45.66988" lon="4.35817">
        <ele>647</ele>
        <time>2024-04-27T11:31:29Z</time>
      </trkpt>
      <trkpt lat="45.66932" lon="4.35687">
        <ele>647</ele>
        <time>2024-04-27T11:31:29Z</time>
      </trkpt>
      <trkpt lat="45.66866" lon="4.35357">
        <ele>645</ele>
        <time>2024-04-27T11:31:29Z</time>
      </trkpt>
      <trkpt lat="45.66795" lon="4.35316">
        <ele>648</ele>
        <time>2024-04-27T11:31:29Z</time>
      </trkpt>
      <trkpt lat="45.66595" lon="4.35155">
        <ele>639</ele>
        <time>2024-04-27T11:31:29Z</time>
      </trkpt>
      <trkpt lat="45.66469" lon="4.3515">
        <ele>632</ele>
        <time>2024-04-27T11:31:29Z</time>
      </trkpt>
      <trkpt lat="45.66388" lon="4.35154">
        <ele>625</ele>
        <time>2024-04-27T11:31:29Z</time>
      </trkpt>
      <trkpt lat="45.66392" lon="4.3541">
        <ele>610</ele>
        <time>2024-04-27T11:31:29Z</time>
      </trkpt>
      <trkpt lat="45.66264" lon="4.35534">
        <ele>593</ele>
        <time>2024-04-27T11:31:29Z</time>
      </trkpt>
      <trkpt lat="45.66162" lon="4.35742">
        <ele>587</ele>
        <time>2024-04-27T11:31:29Z</time>
      </trkpt>
      <trkpt lat="45.66087" lon="4.35637">
        <ele>582</ele>
        <time>2024-04-27T11:31:29Z</time>
      </trkpt>
      <trkpt lat="45.65883" lon="4.357">
        <ele>604</ele>
        <time>2024-04-27T11:31:29Z</time>
      </trkpt>
      <trkpt lat="45.65815" lon="4.35749">
        <ele>611</ele>
        <time>2024-04-27T11:31:29Z</time>
      </trkpt>
      <trkpt lat="45.65882" lon="4.35796">
        <ele>617</ele>
        <time>2024-04-27T11:31:29Z</time>
      </trkpt>
      <trkpt lat="45.6593" lon="4.35849">
        <ele>614</ele>
        <time>2024-04-27T11:31:29Z</time>
      </trkpt>
      <trkpt lat="45.6593" lon="4.35849">
        <ele>614</ele>
        <time>2024-04-27T11:31:29Z</time>
      </trkpt>
    </trkseg>
  </trk>
</gpx>